User: anonymous   Login
Location: Unspecified
(0.0000°N, 0.0000°E)
Time: 21:54:19
(UTC+00:00)
Language:

N. Korean satellite - Orbit

View from above orbital plane
View from above orbital plane
View from above satellite
View from above satellite

Ground track
Ground track

The orbit data is extracted from the following two-line orbital elements,

1 39026U 12072A   16126.39953436  .00003449  00000-0  14428-3 0  9992
2 39026  97.2511 152.0458 0043031 176.0160 184.1429 15.23393534187861
Epoch (UTC): 05 May 2016 09:35:19
Eccentricity: 0.0043031
inclination: 97.2511°
perigee height: 466 km
apogee height: 525 km
right ascension of ascending node: 152.0458°
argument of perigee: 176.0160°
revolutions per day: 15.23393534
mean anomaly at epoch: 184.1429°
orbit number at epoch: 18786

The dashed part of the orbit path shows where the satellite is in the earth's shadow,  

DLR